THOR ABLESTAR DEB, 2432

Orbit data source: Space-Track

THOR ABLESTAR DEB, 2432 is space debris in LEO originally from a launch on Thu, 05 Dec 1963 UTC launched from the Air Force Western Test Range (AFWTR). Debris objects in space refer to the collection of defunct objects orbiting the Earth. Examples of debris include non-operational satellites, rocket bodies, and fragments generated from explosions, collisions, or faulty payload assembly.

Loading next visibility...
Identifier
2432, 1963-049G
Orbit
LEO
Country
Flag of USUS
Related business
Manufacturer
Unknown
Mission
Spacecraft
Bus & Motor
Unknown
Mass
Unknown
Launch date (UTC)
1963-12-05 (62 years ago)
Launch vehicle
Unknown
Launch site
Air Force Western Test Range (AFWTR)
Object type
Payload
Rocket body
Debris
Shape & HBR
Unknown shape, 0.2 m
Radar Cross Section
Medium (>0.1 m² and <1 m²)

Expand to show TLE details & history
Last TLE update: 14 hours ago

TLE from 14 hours ago
0 THOR ABLESTAR DEB
1 02432U 63049G   26036.08782463  .00000099  00000-0  14552-3 0  9996
2 02432  89.9158  71.7206 0032334 254.1955 132.3250 13.48236610 54900
Epoch: 2026-02-05T02:06Z
TLE epoch observation values (Epoch: 2026-02-05T02:06:28.048Z)
Latitude
26.82759°
Longitude
-95.09898°
Altitude
1,098.359 km
Speed
7.297 km/s
True Right ascension
04h 47m 03s
True Declination
26° 41' 44"
Sunlit
Object was in daylight at epoch
Visualization orbit readout
Latitude
Unknown
Longitude
Unknown
Altitude
Unknown
Speed
Unknown
Apparent Right ascension
Unknown
Apparent Declination
Unknown
Sunlit
N/A
Visualization observer readout
Local Sidereal Time
17:45:49
Azimuth
Unknown
Elevation
Unknown
Doppler factor
Unknown
Orbital elements
Apogee altitude
1,099.907 km
Perigee altitude
1,051.704 km
Semi-major axis
7,453.943 km
Eccentricity
0.00323
Inclination
89.9158°
RAAN
71.7206°
Arg. of periapsis
254.1955°
True anomaly
132.59819°
Mean anomaly
132.325°
Eccentric anomaly
132.46167°
Mean motion
3.37259 °/min
Orbital period
106.74 mins
BSTAR
0.00014552
Loading maneuver chart data...
Computing Atmospheric mass density...
Loading historical data...
Loading historical data...
Loading historical data...
Loading historical data...
Loading historical data...
Loading historical data...
Loading historical data...

Documentation

Showing up to 5 results
|